Location: CARMA
(37.2805°N, 118.1419°W)
Time: 01:19:34
(UTC-07:00)

Daily predictions for brighter satellites

Satellite Brightness Start Highest point End
(mag) Time Altitude Azimuth Time Altitude Azimuth Time Altitude Azimuth
CZ-2D R/B 4.4 03:24:46 10° NNE 03:26:03 18° NNE 03:26:03 18° NNE
USA 215 3.9 03:27:29 10° ESE 03:32:35 49° ENE 03:32:35 49° ENE
SL-16 R/B 4.2 03:33:50 10° N 03:38:31 25° ENE 03:43:09 10° ESE
Resurs 1-4 Rocket 4.2 03:39:50 10° NNE 03:41:24 20° N 03:41:24 20° N
Cosmos 2227 Rocket 3.7 03:49:24 31° NNE 03:49:24 31° NNE 03:52:13 10° NNE
NOSS 3-2 (C) 4.0 03:51:44 80° E 03:51:44 80° E 03:59:38 10° SE
Cosmos 2297 Rocket 3.2 03:57:24 41° NNE 03:57:24 41° NNE 04:00:59 10° NNE
Cosmos 1727 Rocket 4.3 04:06:58 60° N 04:06:58 60° N 04:12:03 10° N
NOSS 3-4 (A) 4.3 04:14:23 39° NNW 04:14:23 39° NNW 04:19:17 10° NNE
NOSS 3-4 (C) 4.3 04:14:28 40° NNW 04:14:28 40° NNW 04:19:24 10° NNE
ADEOS II 3.5 04:31:57 10° NNE 04:36:47 36° E 04:41:35 10° SSE
Cosmos 1153 Rocket 4.4 04:31:57 10° NNW 04:38:14 67° W 04:39:18 57° SW
Lacrosse 5 3.5 04:42:33 22° NNW 04:42:33 22° NNW 04:45:51 10° NNE
BREEZE M DEB (TANK) 4.2 04:44:04 22° N 04:44:28 23° N 04:49:42 10° NE
PAYLOAD B 4.1 04:38:59 10° NNE 04:44:31 87° WNW 04:46:15 46° SSW
Okean O Rocket 2.4 04:40:28 10° N 04:43:25 40° N 04:43:25 40° N
Cosmos 2298 Rocket 3.9 04:51:08 63° W 04:51:28 64° WNW 04:56:46 10° NNE
Cosmos 990 Rocket 4.4 04:48:55 22° S 04:52:14 63° ESE 04:57:26 10° NNE
CZ-3A R/B 4.0 04:48:40 14° NNW 04:52:22 49° NE 05:02:35 10° ESE
ATLAS 5 CENTAUR R/B 3.5 04:56:49 29° SSW 04:56:49 29° SSW 05:00:26 10° S
Meteor 1-15 Rocket 4.1 04:51:13 10° N 04:56:50 86° W 05:02:29 10° S
Cosmos 1892 Rocket 4.1 04:57:51 44° NW 04:57:51 44° NW 05:01:16 10° N
PSLV R/B 3.8 04:55:56 10° NNE 05:00:15 69° E 05:03:18 18° S
OAO 2 Rocket 3.7 04:59:37 45° SSW 05:00:50 56° SSE 05:06:02 10° E
CZ-4B R/B 3.1 04:56:10 10° N 05:01:34 65° WNW 05:03:54 34° SW
Cosmos 724 4.3 04:58:15 10° NW 05:04:25 65° WSW 05:10:32 10° SSE
Cosmos 2150 Rocket 4.0 05:04:02 49° WSW 05:04:51 54° WNW 05:09:54 10° N
Thor Agena Rocket 3.6 04:59:56 10° SSE 05:05:14 84° ENE 05:10:32 10° NNW
Cosmos 2228 3.0 05:01:12 10° N 05:05:36 88° ENE 05:09:57 10° S
Cosmos 2227 4.3 05:03:59 17° SSW 05:08:32 82° ESE 05:14:18 10° NNE
CZ-2D R/B 4.2 05:06:48 10° NNW 05:07:23 11° NW 05:07:23 11° NW
Meteor 2-4 Rocket 4.3 05:12:27 35° W 05:13:31 38° WNW 05:19:01 10° N
CZ-4B R/B 3.5 05:09:40 10° N 05:13:54 43° WNW 05:14:15 42° W
USA 215 3.7 05:10:56 10° SSE 05:16:56 38° SW 05:19:59 25° WNW
Feng Yun 1-1 Rocket 4.5 05:13:08 10° NNE 05:18:51 78° ESE 05:24:41 10° S
Cosmos 2100 Rocket 4.1 05:13:01 10° NNW 05:19:00 49° W 05:25:02 10° SSW
ADEOS Rocket 3.2 05:13:57 10° N 05:20:50 64° WNW 05:27:00 10° SSW
Cosmos 1812 Rocket 4.5 05:16:32 10° N 05:20:53 51° E 05:25:14 10° SSE
SL-16 R/B 2.5 05:17:27 10° NW 05:22:46 42° WSW 05:28:04 10° S
Cosmos 1802 Rocket 3.9 05:17:08 10° NNW 05:23:09 58° W 05:29:07 10° S
Cosmos 2061 Rocket 4.2 05:19:16 10° NNW 05:25:20 49° W 05:31:26 10° SSW
Cosmos 1898 Rocket 4.3 05:25:34 29° W 05:26:49 32° WNW 05:31:33 10° N
Tiangong 1 2.4 05:26:20 25° NNW 05:27:16 31° N 05:30:01 10° ENE
CENTAUR R/B 3.1 05:21:38 10° NW 05:29:36 81° WSW 05:37:58 10° SSE
Cosmos 1725 Rocket 4.0 05:23:21 10° N 05:29:41 87° E 05:35:55 10° S
Cosmos 2227 Rocket 4.1 05:31:15 12° NW 05:31:27 12° NW 05:33:42 10° NNW
Cosmos 1125 Rocket 4.2 05:28:14 10° S 05:33:17 57° ESE 05:38:24 10° NNE
Cosmos 2098 Rocket 3.4 05:31:17 10° NNW 05:35:30 55° W 05:40:52 10° S
Cosmos 1937 Rocket 4.1 05:33:12 23° WSW 05:35:47 37° WNW 05:40:40 10° N
NOSS 2-2 (D) 3.9 05:35:10 27° WSW 05:37:00 43° NW 05:41:28 10° NNE
Cosmos 2297 Rocket 3.9 05:39:14 14° WNW 05:40:03 14° NW 05:43:03 10° NNW
DELTA 2 R/B (1) 3.7 05:36:54 21° W 05:40:39 69° N 05:46:13 10° E
Cosmos 2058 Rocket 4.1 05:40:04 10° NW 05:43:29 23° W 05:46:54 10° SW
USA 116 4.3 05:40:35 10° S 05:45:33 56° W 05:50:04 10° NNW
Meteor 2-17 Rocket 4.5 05:41:08 10° N 05:47:19 89° W 05:53:28 10° S
Cosmos 2016 Rocket 4.3 05:44:12 10° NNW 05:50:05 42° W 05:55:53 10° SSW
COSMO-SKYMED 1 3.7 05:47:42 10° SSE 05:51:52 48° ENE 05:56:03 10° N
NOSS 2-2 (C) 4.4 05:50:08 18° W 05:52:31 31° NW 05:56:44 10° NNE
Cosmos 1825 Rocket 4.0 05:48:50 10° S 05:53:11 66° E 05:57:31 10° NNE
Okean-O 3.2 05:49:47 10° N 05:53:52 37° WNW 05:57:56 10° SW
NOAA 6 4.0 05:52:53 10° NNE 05:58:07 87° WNW 06:03:18 10° SSW
Iridium 4 Rocket 4.0 05:54:09 10° SSE 05:58:54 56° E 06:03:18 10° N
Intercosmos 25 Rocket 3.8 05:59:10 10° N 06:03:05 79° W 06:09:15 10° S
Cosmos 1943 3.7 05:58:04 10° NNW 06:03:40 64° ENE 06:09:15 10° SSE
SJ-6F 4.4 06:00:01 10° N 06:04:11 81° WNW 06:08:23 10° SSW
FALCON 9 R/B 4.4 05:57:55 11° WSW 06:04:57 74° SSE 06:36:29 10° E
USA 129 2.3 06:05:00 10° SSW 06:06:36 25° W 06:08:06 10° NW
Cosmos 2123 Rocket 4.4 06:02:23 10° SW 06:08:03 38° WNW 06:13:46 10° N
Meteor 1-22 Rocket 4.3 06:03:39 10° N 06:09:14 90° E 06:15:02 10° S
Cosmos 1603 4.0 06:05:08 10° NW 06:10:34 46° WSW 06:15:57 10° S
Cosmos 2263 Rocket 2.4 06:06:29 10° SSW 06:12:01 77° ESE 06:17:36 10° NNE
SL-24 R/B 3.8 06:09:34 10° N 06:13:40 66° WNW 06:17:21 10° SSW
Cosmos 1766 3.6 06:10:59 10° N 06:14:59 75° E 06:18:57 10° SSE
MOS 1 Rocket 4.0 06:11:32 10° N 06:16:04 38° WNW 06:20:49 10° SW
ADEOS II 3.1 06:12:02 10° NNW 06:16:18 26° WNW 06:20:32 10° WSW
Meteor 1-31 Rocket 3.7 06:15:35 10° N 06:19:01 29° WNW 06:22:26 10° SW
SeaSat 1 4.1 06:17:53 10° ESE 06:22:22 36° ENE 06:26:52 10° N
Meteor 1-21 4.3 06:18:53 10° SSW 06:24:38 80° W 06:30:29 10° N
Cosmos 1953 Rocket 3.6 06:21:36 10° SSW 06:26:02 72° W 06:30:31 10° N
